Flag for U.S.A. Weather past 2 weeks in Lowell, Massachusetts, U.S.A.

Now
49 °F

Clear.


Feels Like: 48 °F
Forecast: 44 / 59 °F
Wind: 3 mph from South

Location: Hanscom Field

Current Time: Oct 20, 2014 at 9:53:01 PM

Latest Report: Oct 20, 2014 at 8:56 PM


Visibility: 10 mi

Pressure: 30.03 "Hg

Humidity: 61%

Dew point: 36 °F

Location of LowellLocation

Historic Weather in Lowell — Graph

°F

Lowell temperature yesterday

Maximum temperature yesterday: 54 °F (at 2:56 AM)
Minimum temperature yesterday: 43 °F (at 10:56 PM)
Average temperature yesterday: 49 °F

Past Weeks' High & Low Weather Summary

 TemperatureHumidityPressure
High78 °F (Oct 15, 1:56 PM)100% (Oct 11, 7:56 PM)30.40 "Hg (Oct 11, 7:56 PM)
Low31 °F (Oct 12, 4:56 AM)33% (Oct 9, 1:56 PM)29.52 "Hg (Oct 18, 3:56 PM)
Average56 °F76%30.00 "Hg
* Reported Oct 5 7:56 PM — Oct 20 7:56 PM, Lowell, Weather by CustomWeather, © 2014

Note: Actual official high and low records may vary slightly from our data, if they occured in-between our weather recording intervals... More about our weather records

Advertising

Lowell weather history for previous 24 hours

 ConditionsComfort  
Time TempWeatherWind HumidityBarometerVisibility
7:56 PM
Oct 20
49 °FPassing clouds.3 mph59%30.02 "Hg10 mi
6:56 PM50 °FOvercast.6 mph57%30.01 "Hg10 mi
5:56 PM52 °FMostly cloudy.3 mph49%30.01 "Hg10 mi
4:56 PM54 °FBroken clouds.9 mph43%30.00 "Hg10 mi
3:56 PM54 °FSunny.9 mph41%29.99 "Hg10 mi
2:56 PM56 °FSunny.14 mph37%30.00 "Hg10 mi
1:56 PM54 °FSunny.10 mph41%30.00 "Hg10 mi
12:56 PM53 °FSunny.10 mph43%30.03 "Hg10 mi
11:56 AM51 °FSunny.12 mph48%30.06 "Hg10 mi
10:56 AM47 °FScattered clouds.9 mph52%30.08 "Hg10 mi
9:56 AM45 °FSunny.9 mph53%30.09 "Hg10 mi
8:56 AM39 °FSunny.8 mph65%30.10 "Hg10 mi
7:56 AM35 °FClear.7 mph75%30.08 "Hg10 mi
6:56 AM33 °FClear.5 mph75%30.06 "Hg10 mi
5:56 AM34 °FClear.7 mph73%30.06 "Hg10 mi
4:56 AM34 °FClear.6 mph73%30.03 "Hg10 mi
3:56 AM36 °FClear.5 mph67%30.03 "Hg10 mi
2:56 AM38 °FClear.8 mph63%30.03 "Hg10 mi
1:56 AM36 °FClear.8 mph64%30.03 "Hg10 mi
12:56 AM38 °FClear.9 mph55%30.01 "Hg10 mi
10:56 PM
Oct 19
43 °FOvercast.18 mph47%29.98 "Hg10 mi
9:56 PM44 °FMostly cloudy.9 mph58%29.96 "Hg10 mi
Weather by CustomWeather, © 2014

See weather overviewHow to use our weather pages